Wind_Speed
36 36 36 36 36 37 37 37 37 37 37 37 38 38 37 38 38 39 39 39 39 39 39 39 39 39 39 40 40 40 40 39 39 40 40 40 40 40 40 40 40 40 40
38 37 37 37 38 38 38 38 38 38 39 39 39 39 39 39 39 40 40 40 41 41 41 41 41 42 42 43 42 41 41 41 41 41 42 42 42 42 42 42 42 42 42
39 38 39 39 40 40 40 40 40 39 40 40 41 41 41 40 40 41 42 42 43 43 43 43 43 44 44 44 44 44 44 43 43 43 43 43 43 43 43 43 43 43 43
40 40 40 40 41 42 41 41 41 41 41 41 41 41 42 43 43 44 45 45 45 45 45 45 45 45 45 45 45 45 45 45 45 45 44 44 44 44 44 44 43 44 44
42 42 42 42 42 42 43 42 43 43 43 43 42 43 43 44 45 46 46 47 47 47 47 47 47 47 47 47 47 47 47 47 47 46 46 45 44 44 44 44 44 45 45
43 43 43 44 43 44 44 44 45 45 45 45 45 45 45 46 47 47 48 48 49 49 49 49 49 49 48 48 48 48 48 48 47 46 46 45 45 44 45 45 45 45 44
45 44 44 44 44 45 45 46 46 46 47 47 47 47 47 48 48 48 49 49 50 50 50 50 50 49 50 50 50 49 48 48 47 46 46 46 46 46 45 46 45 45 45
46 46 45 46 46 46 47 47 47 47 48 49 49 49 49 49 49 49 49 50 50 51 51 50 50 50 50 50 49 48 47 47 47 46 47 46 46 46 46 46 46 46 45
48 47 47 48 47 47 48 48 48 49 49 50 51 51 50 50 49 49 49 49 51 51 50 50 50 50 50 49 48 47 47 47 46 46 47 46 47 47 47 46 47 46 46
50 50 50 50 50 50 50 49 48 49 50 51 51 51 51 51 51 49 48 48 49 49 49 50 50 50 49 48 48 48 47 47 47 47 47 47 47 47 47 47 47 47 47
51 51 51 52 51 51 51 51 51 51 51 51 52 52 51 50 50 50 47 46 46 47 47 47 48 49 49 49 48 47 47 47 47 47 47 47 47 48 48 47 48 48 48
51 52 52 53 53 52 53 53 52 53 52 52 52 51 51 50 49 49 48 46 46 46 47 46 46 47 47 47 46 46 46 46 46 46 47 47 48 48 47 47 48 48 48
51 51 52 53 54 53 54 54 54 54 53 52 51 51 51 50 49 48 47 46 46 45 45 46 45 45 46 46 45 45 46 46 45 45 45 45 46 47 46 46 47 48 47
51 51 52 53 53 53 53 53 53 53 53 52 51 50 49 48 48 47 47 47 45 44 44 44 44 44 44 44 44 44 44 44 44 43 44 44 44 45 45 46 46 46 46
52 52 52 52 51 51 50 51 50 51 50 50 49 48 47 46 45 46 46 45 44 43 42 42 42 41 41 41 41 43 45 45 44 43 44 44 44 44 44 45 45 45 44
51 51 51 51 50 50 49 49 49 48 47 47 47 47 46 45 45 44 44 44 43 42 41 40 40 39 39 39 40 41 43 44 43 44 43 43 43 42 43 43 43 43 42
50 50 49 49 48 48 48 48 47 45 46 45 45 45 44 43 44 43 43 42 42 40 39 38 38 38 36 37 37 37 38 39 40 41 42 42 41 41 40 41 42 41 41
47 48 48 48 48 48 47 46 45 44 44 43 43 43 42 42 42 42 41 40 39 38 38 38 37 35 35 35 36 36 37 36 38 39 41 41 41 40 40 40 40 40 39
44 46 47 47 46 46 46 45 44 42 41 41 41 42 41 41 41 40 39 38 38 37 37 37 36 36 35 36 35 36 36 36 38 37 38 38 38 38 39 39 39 39 39
42 44 45 45 45 44 43 43 43 41 40 40 39 38 38 38 38 37 37 37 37 36 35 35 35 35 35 35 35 35 35 36 35 35 35 36 37 36 36 36 37 36 37
39 41 42 42 42 43 43 41 41 40 39 38 38 37 37 37 37 37 37 36 36 36 35 34 35 34 34 33 33 33 34 34 34 34 34 33 35 34 33 34 34 34 35
36 37 37 38 39 40 42 41 40 39 38 37 37 37 37 36 36 37 35 34 34 34 34 34 33 33 33 34 34 33 33 33 32 32 32 31 32 32 32 32 32 32 33
32 31 32 34 35 37 38 37 37 38 37 36 36 36 35 35 35 34 33 33 33 33 32 32 31 31 31 32 32 31 30 30 30 30 30 30 30 31 31 32 32 31 31
30 30 30 31 31 32 33 32 33 33 34 34 34 34 33 32 31 31 31 31 31 31 29 29 30 30 30 30 29 28 27 26 26 26 27 27 27 29 30 30 29 27 28
28 29 29 29 30 30 29 29 29 30 30 31 32 31 31 31 30 30 29 29 29 30 30 29 30 29 29 28 27 26 25 25 24 24 24 25 25 27 28 28 26 26 27
26 26 27 27 27 26 26 27 28 28 28 29 29 29 29 29 29 28 27 27 28 29 29 29 28 28 27 25 25 24 23 24 24 24 23 24 25 25 25 24 24 24 26
Wind_Direction
267 268 268 267 267 269 269 269 270 271 271 272 272 271 271 271 272 273 273 273 274 275 275 276 276 277 278 279 278 278 278 278 279 279 279 279 280 279 279 281 282 283 284
267 267 266 266 267 268 269 270 270 271 271 271 270 271 271 272 273 274 274 274 274 274 274 274 275 276 277 278 278 277 277 278 279 280 279 279 279 280 279 280 280 282 283
266 266 266 267 267 268 269 270 270 270 270 271 271 271 272 272 273 274 274 274 274 274 274 274 273 274 275 277 277 277 277 277 278 279 280 280 280 280 280 279 280 281 282
265 267 268 268 268 268 268 270 271 271 270 271 271 271 272 272 273 274 275 275 274 275 274 274 273 273 273 274 276 276 276 277 277 278 278 279 279 279 280 280 280 281 282
265 267 269 269 268 267 267 269 271 271 271 271 271 272 273 273 274 275 275 275 275 274 274 274 274 273 273 274 274 274 275 276 276 276 276 277 278 279 279 281 281 281 282
266 267 268 269 269 268 268 268 270 271 271 271 272 272 273 275 275 276 276 276 276 274 274 274 274 274 274 273 273 273 273 274 275 275 275 276 277 279 279 280 281 281 282
267 267 267 269 269 269 269 269 270 271 272 272 273 273 274 275 276 278 279 278 277 275 275 274 274 274 273 273 272 272 272 272 273 274 274 275 276 277 279 279 280 280 281
268 268 268 269 270 270 270 272 272 272 273 274 274 275 275 276 278 279 279 278 277 275 274 274 273 272 273 273 272 271 270 271 272 273 274 275 275 276 278 278 279 280 280
267 268 269 270 271 271 272 273 272 272 273 274 275 277 277 277 279 279 280 279 278 275 273 273 273 272 272 272 270 270 270 270 270 272 274 274 275 275 276 276 278 279 279
267 268 269 270 271 272 272 273 273 273 273 274 275 276 277 279 279 279 279 279 279 277 276 273 272 271 271 271 270 270 269 268 269 270 272 273 274 274 275 276 278 278 278
268 269 269 270 271 272 272 273 273 273 274 274 274 274 275 277 279 279 279 278 278 278 277 275 273 272 271 271 270 269 268 268 269 270 271 273 273 273 274 276 277 278 278
268 269 270 270 271 272 272 273 273 273 274 274 273 273 274 276 278 278 278 279 278 277 278 277 275 273 272 271 271 270 269 268 268 270 271 272 273 273 274 275 276 278 278
268 269 270 271 272 272 272 273 273 272 273 274 274 273 274 275 276 277 278 278 278 278 278 277 275 274 273 271 271 270 269 269 269 270 271 272 273 273 274 275 276 277 277
269 269 270 271 272 273 272 272 272 271 272 273 273 273 274 275 275 276 277 278 277 277 277 277 276 276 274 272 271 271 270 269 269 269 270 271 273 274 274 275 276 276 276
268 269 269 269 270 272 273 272 271 270 271 271 272 272 272 274 274 275 276 276 277 277 277 277 277 276 275 274 272 271 269 268 269 269 271 272 274 275 275 275 275 276 276
269 269 268 268 269 269 270 271 270 270 269 270 271 271 271 272 274 275 275 276 276 278 278 278 278 276 275 275 275 274 272 269 268 270 272 273 275 276 277 277 276 276 275
269 268 267 267 268 268 269 269 269 269 270 270 269 269 270 271 271 273 274 275 276 277 278 277 277 277 277 275 274 274 273 272 272 271 273 274 275 276 278 278 278 276 274
269 268 267 267 267 267 268 269 268 269 269 268 268 267 269 270 270 272 274 275 275 275 275 275 277 276 277 277 276 274 273 273 274 275 274 274 274 275 278 279 278 276 276
271 268 266 266 267 267 268 269 267 268 269 269 268 267 267 268 270 272 272 273 275 275 276 275 275 276 278 279 278 276 275 275 275 276 276 276 276 276 277 278 278 276 276
272 269 267 267 267 267 268 268 266 267 267 268 268 267 267 268 269 270 271 273 274 275 276 275 275 277 277 278 278 277 277 277 277 277 277 277 276 277 278 280 280 277 277
273 271 269 267 268 268 267 266 265 266 266 266 266 266 268 270 269 270 271 273 274 274 274 275 275 276 276 277 279 279 278 278 280 280 279 278 276 275 277 280 283 281 280
275 272 270 269 269 269 268 266 264 266 265 266 265 266 268 270 270 271 270 272 274 273 272 274 274 276 277 278 280 280 279 280 281 281 278 277 275 275 277 280 285 286 285
274 272 272 272 273 271 269 267 266 266 264 265 266 266 268 269 270 270 268 269 271 272 272 273 274 277 276 278 280 280 281 281 282 281 280 279 277 277 278 281 284 286 288
276 275 274 274 273 272 270 267 265 264 264 264 264 265 267 268 269 267 267 268 270 271 271 273 275 277 277 280 280 282 283 285 285 282 280 278 279 280 281 282 286 289 290
280 278 277 275 274 272 269 266 264 265 264 263 264 266 267 269 269 267 266 268 269 270 270 271 275 277 277 277 278 281 283 285 283 281 279 277 278 280 281 283 285 286 288
281 280 278 276 275 272 269 266 266 265 264 264 266 268 269 269 270 267 266 268 270 270 271 272 275 276 276 276 277 280 283 285 284 281 281 281 281 280 279 282 284 286 289
Height
5775 5775 5775 5775 5775 5775 5776 5776 5776 5776 5776 5776 5776 5776 5776 5776 5776 5776 5776 5776 5775 5775 5775 5775 5775 5775 5774 5774 5774 5774 5773 5773 5773 5773 5772 5772 5771 5771 5770 5769 5768 5767 5766
5766 5766 5766 5766 5767 5767 5767 5767 5767 5767 5767 5767 5767 5767 5767 5766 5766 5766 5766 5766 5766 5765 5765 5765 5765 5765 5764 5764 5764 5764 5763 5763 5763 5763 5762 5762 5761 5761 5760 5759 5759 5758 5756
5756 5757 5757 5757 5757 5758 5757 5757 5757 5757 5757 5758 5758 5758 5757 5757 5757 5756 5756 5756 5755 5755 5755 5754 5754 5754 5754 5754 5753 5753 5753 5753 5752 5752 5751 5751 5751 5750 5750 5749 5748 5748 5746
5747 5748 5747 5747 5748 5748 5748 5748 5748 5748 5748 5748 5748 5748 5748 5747 5747 5746 5745 5745 5744 5744 5743 5743 5742 5742 5742 5742 5742 5742 5741 5741 5741 5741 5741 5740 5740 5739 5739 5738 5738 5737 5736
5737 5737 5738 5738 5737 5738 5738 5738 5738 5738 5738 5738 5738 5738 5737 5736 5736 5735 5734 5733 5732 5732 5731 5731 5730 5730 5730 5729 5729 5729 5729 5729 5729 5729 5729 5729 5728 5728 5728 5727 5727 5726 5725
5727 5727 5727 5727 5727 5727 5727 5728 5727 5727 5727 5727 5726 5726 5726 5725 5724 5724 5723 5722 5720 5719 5718 5718 5717 5717 5717 5716 5716 5716 5717 5717 5717 5717 5717 5717 5717 5717 5717 5716 5716 5715 5714
5716 5716 5717 5717 5716 5717 5716 5716 5716 5716 5715 5715 5715 5715 5715 5714 5713 5712 5710 5709 5708 5706 5705 5705 5704 5704 5703 5703 5703 5703 5704 5704 5705 5705 5705 5706 5706 5706 5705 5705 5704 5704 5703
5704 5705 5706 5706 5705 5705 5705 5704 5704 5704 5704 5702 5702 5701 5702 5703 5701 5700 5698 5696 5695 5693 5692 5691 5690 5690 5690 5690 5690 5690 5691 5691 5692 5693 5693 5693 5694 5694 5693 5693 5692 5692 5691
5693 5694 5694 5694 5694 5693 5693 5692 5692 5692 5692 5690 5688 5687 5687 5688 5689 5689 5686 5683 5681 5680 5679 5677 5677 5676 5676 5676 5676 5677 5678 5678 5679 5680 5681 5681 5681 5681 5681 5680 5680 5680 5679
5681 5681 5682 5681 5681 5681 5681 5680 5679 5678 5678 5677 5676 5675 5674 5673 5673 5674 5674 5671 5668 5666 5665 5664 5663 5662 5662 5662 5663 5664 5665 5665 5666 5667 5668 5668 5668 5669 5668 5668 5668 5668 5667
5668 5668 5669 5668 5668 5668 5667 5667 5666 5665 5665 5664 5663 5663 5661 5660 5659 5659 5660 5659 5656 5654 5652 5651 5650 5649 5649 5649 5650 5650 5651 5652 5653 5655 5655 5655 5655 5656 5655 5655 5656 5655 5655
5655 5655 5655 5655 5655 5655 5654 5654 5653 5652 5652 5651 5650 5649 5648 5648 5647 5646 5646 5645 5644 5643 5640 5639 5637 5637 5636 5636 5637 5637 5638 5639 5640 5641 5642 5643 5643 5643 5643 5643 5643 5642 5642
5642 5642 5641 5641 5641 5641 5641 5640 5639 5639 5638 5637 5637 5637 5636 5635 5634 5633 5632 5631 5631 5631 5629 5627 5625 5624 5624 5624 5624 5624 5625 5626 5627 5628 5630 5630 5631 5630 5630 5630 5630 5630 5629
5628 5628 5628 5628 5627 5627 5626 5626 5625 5625 5625 5624 5624 5624 5623 5623 5622 5621 5620 5619 5618 5619 5617 5616 5614 5613 5612 5612 5612 5612 5613 5614 5615 5616 5617 5618 5618 5618 5618 5618 5618 5617 5617
5614 5614 5614 5614 5614 5613 5613 5612 5612 5611 5611 5611 5611 5611 5611 5610 5610 5609 5608 5607 5607 5607 5607 5606 5604 5602 5601 5600 5600 5600 5601 5602 5603 5604 5605 5606 5606 5606 5606 5605 5605 5605 5605
5600 5600 5600 5600 5600 5600 5599 5599 5599 5599 5599 5599 5599 5599 5599 5599 5599 5598 5597 5597 5595 5595 5595 5595 5593 5592 5591 5590 5589 5589 5589 5590 5591 5592 5593 5594 5594 5594 5594 5594 5593 5593 5592
5586 5586 5586 5586 5586 5586 5587 5587 5587 5587 5587 5587 5587 5588 5588 5588 5588 5587 5587 5586 5586 5585 5585 5585 5584 5583 5581 5581 5580 5579 5580 5580 5581 5581 5582 5583 5583 5583 5583 5582 5582 5581 5580
5572 5572 5572 5573 5573 5574 5574 5574 5575 5576 5576 5577 5577 5577 5577 5577 5577 5577 5577 5577 5576 5575 5575 5575 5575 5573 5573 5572 5571 5570 5570 5570 5570 5571 5571 5571 5571 5571 5571 5571 5570 5569 5569
5559 5558 5559 5560 5560 5561 5562 5563 5564 5565 5565 5566 5566 5567 5567 5567 5567 5567 5567 5567 5567 5566 5566 5566 5565 5565 5564 5563 5563 5562 5562 5561 5561 5560 5560 5560 5560 5560 5560 5559 5558 5558 5558
5546 5546 5546 5547 5548 5549 5550 5551 5552 5554 5554 5555 5556 5556 5557 5557 5557 5557 5558 5558 5558 5558 5557 5557 5557 5557 5556 5555 5555 5554 5554 5553 5552 5551 5550 5550 5550 5549 5549 5549 5549 5548 5547
5535 5534 5535 5536 5536 5537 5538 5539 5541 5543 5544 5545 5546 5546 5547 5548 5548 5548 5549 5549 5549 5549 5549 5549 5549 5549 5548 5547 5547 5546 5545 5545 5543 5541 5541 5541 5541 5541 5540 5540 5539 5538 5537
5525 5524 5525 5526 5527 5527 5528 5529 5530 5532 5533 5535 5536 5537 5538 5539 5539 5540 5540 5540 5540 5540 5540 5541 5541 5541 5540 5539 5538 5538 5537 5536 5535 5534 5533 5533 5532 5532 5531 5531 5530 5528 5527
5516 5516 5516 5517 5517 5517 5518 5519 5520 5522 5524 5525 5527 5529 5530 5530 5530 5531 5532 5532 5532 5532 5532 5533 5533 5532 5532 5531 5531 5530 5528 5527 5527 5525 5525 5526 5524 5524 5523 5523 5522 5520 5519
5508 5508 5508 5508 5509 5509 5509 5510 5511 5513 5515 5517 5518 5520 5521 5522 5522 5523 5524 5524 5524 5524 5525 5525 5525 5524 5523 5523 5522 5522 5521 5520 5519 5518 5518 5518 5518 5517 5516 5515 5514 5512 5511
5501 5501 5501 5501 5501 5502 5502 5503 5504 5505 5507 5509 5510 5511 5513 5514 5514 5515 5516 5517 5517 5517 5516 5517 5517 5516 5515 5515 5515 5514 5514 5514 5513 5512 5510 5511 5511 5510 5509 5508 5506 5505 5503
5495 5494 5494 5494 5494 5495 5495 5496 5497 5498 5500 5501 5502 5504 5505 5506 5506 5506 5507 5508 5509 5509 5509 5509 5509 5509 5508 5508 5508 5508 5508 5507 5507 5506 5505 5504 5504 5503 5503 5502 5499 5498 5496